Year,Month,Day,Hour,Minute,Value (Times are PST for temperature in C)
2014,12,03,00,00,2.90
2014,12,03,00,01,2.90
2014,12,03,00,02,2.90
2014,12,03,00,03,2.90
2014,12,03,00,04,2.90
2014,12,03,00,05,2.90
2014,12,03,00,06,2.90
2014,12,03,00,07,2.90
2014,12,03,00,08,2.90
2014,12,03,00,09,3.00
2014,12,03,00,10,2.90
2014,12,03,00,11,3.00
2014,12,03,00,12,2.90
2014,12,03,00,13,3.00
2014,12,03,00,14,3.00
2014,12,03,00,15,3.00
2014,12,03,00,16,3.00
2014,12,03,00,17,3.00
2014,12,03,00,18,3.00
2014,12,03,00,19,3.10
2014,12,03,00,20,3.10
2014,12,03,00,21,3.10
2014,12,03,00,22,3.10
2014,12,03,00,23,3.10
2014,12,03,00,24,3.10
2014,12,03,00,25,3.10
2014,12,03,00,26,3.20
2014,12,03,00,27,3.20
2014,12,03,00,28,3.20
2014,12,03,00,29,3.30
2014,12,03,00,30,3.30
2014,12,03,00,31,3.40
2014,12,03,00,32,3.40
2014,12,03,00,33,3.50
2014,12,03,00,34,3.50
2014,12,03,00,35,3.60
2014,12,03,00,36,3.70
2014,12,03,00,37,3.70
2014,12,03,00,38,3.70
2014,12,03,00,39,3.70
2014,12,03,00,40,3.70
2014,12,03,00,41,3.70
2014,12,03,00,42,3.70
2014,12,03,00,43,3.70
2014,12,03,00,44,3.70
2014,12,03,00,45,3.70
2014,12,03,00,46,3.80
2014,12,03,00,47,3.70
2014,12,03,00,48,3.80
2014,12,03,00,49,3.80
2014,12,03,00,50,3.80
2014,12,03,00,51,3.80
2014,12,03,00,52,3.80
2014,12,03,00,53,3.80
2014,12,03,00,54,3.80
2014,12,03,00,55,3.80
2014,12,03,00,56,3.80
2014,12,03,00,57,3.80
2014,12,03,00,58,3.80
2014,12,03,00,59,3.80
2014,12,03,01,00,3.80
2014,12,03,01,01,3.80
2014,12,03,01,02,3.90
2014,12,03,01,03,3.90
2014,12,03,01,04,3.90
2014,12,03,01,05,3.90
2014,12,03,01,06,3.90
2014,12,03,01,07,3.90
2014,12,03,01,08,3.90
2014,12,03,01,09,3.90
2014,12,03,01,10,3.80
2014,12,03,01,11,3.80
2014,12,03,01,12,3.80
2014,12,03,01,13,3.80
2014,12,03,01,14,3.80
2014,12,03,01,15,3.80
2014,12,03,01,16,3.80
2014,12,03,01,17,3.70
2014,12,03,01,18,3.70
2014,12,03,01,19,3.70
2014,12,03,01,20,3.70
2014,12,03,01,21,3.70
2014,12,03,01,22,3.70
2014,12,03,01,23,3.60
2014,12,03,01,24,3.60
2014,12,03,01,25,3.60
2014,12,03,01,26,3.50
2014,12,03,01,27,3.50
2014,12,03,01,28,3.50
2014,12,03,01,29,3.40
2014,12,03,01,30,3.40
2014,12,03,01,31,3.40
2014,12,03,01,32,3.30
2014,12,03,01,33,3.30
2014,12,03,01,34,3.30
2014,12,03,01,35,3.30
2014,12,03,01,36,3.30
2014,12,03,01,37,3.20
2014,12,03,01,38,3.20
2014,12,03,01,39,3.20
2014,12,03,01,40,3.20
2014,12,03,01,41,3.10
2014,12,03,01,42,3.10
2014,12,03,01,43,3.10
2014,12,03,01,44,3.10
2014,12,03,01,45,3.10
2014,12,03,01,46,3.00
2014,12,03,01,47,3.00
2014,12,03,01,48,3.00
2014,12,03,01,49,2.90
2014,12,03,01,50,2.90
2014,12,03,01,51,2.90
2014,12,03,01,52,2.90
2014,12,03,01,53,2.90
2014,12,03,01,54,2.90
2014,12,03,01,55,2.90
2014,12,03,01,56,2.90
2014,12,03,01,57,2.90
2014,12,03,01,58,2.90
2014,12,03,01,59,2.90
2014,12,03,02,00,2.90
2014,12,03,02,01,2.90
2014,12,03,02,02,2.90
2014,12,03,02,03,2.90
2014,12,03,02,04,2.90
2014,12,03,02,05,2.90
2014,12,03,02,06,2.90
2014,12,03,02,07,2.90
2014,12,03,02,08,2.90
2014,12,03,02,09,2.90
2014,12,03,02,10,2.80
2014,12,03,02,11,2.80
2014,12,03,02,12,2.80
2014,12,03,02,13,2.80
2014,12,03,02,14,2.80
2014,12,03,02,15,2.80
2014,12,03,02,16,2.80
2014,12,03,02,17,2.80
2014,12,03,02,18,2.80
2014,12,03,02,19,2.80
2014,12,03,02,20,2.70
2014,12,03,02,21,2.70
2014,12,03,02,22,2.70
2014,12,03,02,23,2.70
2014,12,03,02,24,2.70
2014,12,03,02,25,2.70
2014,12,03,02,26,2.70
2014,12,03,02,27,2.70
2014,12,03,02,28,2.70
2014,12,03,02,29,2.60
2014,12,03,02,30,2.60
2014,12,03,02,31,2.60
2014,12,03,02,32,2.60
2014,12,03,02,33,2.60
2014,12,03,02,34,2.60
2014,12,03,02,35,2.60
2014,12,03,02,36,2.60
2014,12,03,02,37,2.60
2014,12,03,02,38,2.60
2014,12,03,02,39,2.60
2014,12,03,02,40,2.60
2014,12,03,02,41,2.60
2014,12,03,02,42,2.60
2014,12,03,02,43,2.50
2014,12,03,02,44,2.50
2014,12,03,02,45,2.50
2014,12,03,02,46,2.50
2014,12,03,02,47,2.50
2014,12,03,02,48,2.50
2014,12,03,02,49,2.50
2014,12,03,02,50,2.50
2014,12,03,02,51,2.40
2014,12,03,02,52,2.40
2014,12,03,02,53,2.40
2014,12,03,02,54,2.40
2014,12,03,02,55,2.40
2014,12,03,02,56,2.40
2014,12,03,02,57,2.40
2014,12,03,02,58,2.40
2014,12,03,02,59,2.40
2014,12,03,03,00,2.40
2014,12,03,03,01,2.40
2014,12,03,03,02,2.40
2014,12,03,03,03,2.30
2014,12,03,03,04,2.30
2014,12,03,03,05,2.30
2014,12,03,03,06,2.30
2014,12,03,03,07,2.30
2014,12,03,03,08,2.30
2014,12,03,03,09,2.30
2014,12,03,03,10,2.30
2014,12,03,03,11,2.30
2014,12,03,03,12,2.30
2014,12,03,03,13,2.30
2014,12,03,03,14,2.30
2014,12,03,03,15,2.30
2014,12,03,03,16,2.30
2014,12,03,03,17,2.20
2014,12,03,03,18,2.20
2014,12,03,03,19,2.20
2014,12,03,03,20,2.20
2014,12,03,03,21,2.20
2014,12,03,03,22,2.20
2014,12,03,03,23,2.20
2014,12,03,03,24,2.10
2014,12,03,03,25,2.10
2014,12,03,03,26,2.10
2014,12,03,03,27,2.10
2014,12,03,03,28,2.10
2014,12,03,03,29,2.10
2014,12,03,03,30,2.10
2014,12,03,03,31,2.10
2014,12,03,03,32,2.10
2014,12,03,03,33,2.10
2014,12,03,03,34,2.00
2014,12,03,03,35,2.00
2014,12,03,03,36,2.00
2014,12,03,03,37,2.00
2014,12,03,03,38,2.00
2014,12,03,03,39,2.00
2014,12,03,03,40,2.00
2014,12,03,03,41,2.00
2014,12,03,03,42,2.00
2014,12,03,03,43,2.00
2014,12,03,03,44,2.00
2014,12,03,03,45,2.00
2014,12,03,03,46,1.90
2014,12,03,03,47,1.90
2014,12,03,03,48,1.90
2014,12,03,03,49,1.90
2014,12,03,03,50,1.90
2014,12,03,03,51,1.90
2014,12,03,03,52,1.90
2014,12,03,03,53,1.90
2014,12,03,03,54,1.90
2014,12,03,03,55,1.90
2014,12,03,03,56,1.90
2014,12,03,03,57,1.90
2014,12,03,03,58,1.90
2014,12,03,03,59,1.90
2014,12,03,04,00,1.90
2014,12,03,04,01,1.90
2014,12,03,04,02,1.90
2014,12,03,04,03,1.90
2014,12,03,04,04,1.90
2014,12,03,04,05,1.90
2014,12,03,04,06,1.90
2014,12,03,04,07,1.80
2014,12,03,04,08,1.80
2014,12,03,04,09,1.80
2014,12,03,04,10,1.80
2014,12,03,04,11,1.80
2014,12,03,04,12,1.80
2014,12,03,04,13,1.80
2014,12,03,04,14,1.80
2014,12,03,04,15,1.80
2014,12,03,04,16,1.80
2014,12,03,04,17,1.80
2014,12,03,04,18,1.70
2014,12,03,04,19,1.70
2014,12,03,04,20,1.70
2014,12,03,04,21,1.70
2014,12,03,04,22,1.70
2014,12,03,04,23,1.70
2014,12,03,04,24,1.70
2014,12,03,04,25,1.70
2014,12,03,04,26,1.70
2014,12,03,04,27,1.70
2014,12,03,04,28,1.70
2014,12,03,04,29,1.70
2014,12,03,04,30,1.80
2014,12,03,04,31,1.80
2014,12,03,04,32,1.80
2014,12,03,04,33,1.80
2014,12,03,04,34,1.80
2014,12,03,04,35,1.80
2014,12,03,04,36,1.80
2014,12,03,04,37,1.80
2014,12,03,04,38,1.80
2014,12,03,04,39,1.90
2014,12,03,04,40,1.90
2014,12,03,04,41,1.90
2014,12,03,04,42,1.90
2014,12,03,04,43,1.90
2014,12,03,04,44,2.00
2014,12,03,04,45,2.00
2014,12,03,04,46,2.00
2014,12,03,04,47,2.00
2014,12,03,04,48,2.10
2014,12,03,04,49,2.10
2014,12,03,04,50,2.10
2014,12,03,04,51,2.10
2014,12,03,04,52,2.10
2014,12,03,04,53,2.10
2014,12,03,04,54,2.10
2014,12,03,04,55,2.10
2014,12,03,04,56,2.20
2014,12,03,04,57,2.20
2014,12,03,04,58,2.20
2014,12,03,04,59,2.20
2014,12,03,05,00,2.20
2014,12,03,05,01,2.20
2014,12,03,05,02,2.20
2014,12,03,05,03,2.30
2014,12,03,05,04,2.30
2014,12,03,05,05,2.30
2014,12,03,05,06,2.30
2014,12,03,05,07,2.40
2014,12,03,05,08,2.40
2014,12,03,05,09,2.40
2014,12,03,05,10,2.40
2014,12,03,05,11,2.40
2014,12,03,05,12,2.50
2014,12,03,05,13,2.50
2014,12,03,05,14,2.50
2014,12,03,05,15,2.50
2014,12,03,05,16,2.60
2014,12,03,05,17,2.60
2014,12,03,05,18,2.60
2014,12,03,05,19,2.60
2014,12,03,05,20,2.60
2014,12,03,05,21,2.70
2014,12,03,05,22,2.70
2014,12,03,05,23,2.70
2014,12,03,05,24,2.70
2014,12,03,05,25,2.70
2014,12,03,05,26,2.70
2014,12,03,05,27,2.70
2014,12,03,05,28,2.80
2014,12,03,05,29,2.80
2014,12,03,05,30,2.80
2014,12,03,05,31,2.80
2014,12,03,05,32,2.80
2014,12,03,05,33,2.80
2014,12,03,05,34,2.80
2014,12,03,05,35,2.80
2014,12,03,05,36,2.80
2014,12,03,05,37,2.90
2014,12,03,05,38,2.90
2014,12,03,05,39,3.00
2014,12,03,05,40,3.10
2014,12,03,05,41,3.10
2014,12,03,05,42,3.20
2014,12,03,05,43,3.30
2014,12,03,05,44,3.40
2014,12,03,05,45,3.40
2014,12,03,05,46,3.50
2014,12,03,05,47,3.60
2014,12,03,05,48,3.60
2014,12,03,05,49,3.70
2014,12,03,05,50,3.70
2014,12,03,05,51,3.80
2014,12,03,05,52,3.80
2014,12,03,05,53,3.80
2014,12,03,05,54,3.80
2014,12,03,05,55,3.90
2014,12,03,05,56,3.90
2014,12,03,05,57,3.90
2014,12,03,05,58,3.90
2014,12,03,05,59,3.90
2014,12,03,06,00,3.90
2014,12,03,06,01,4.00
2014,12,03,06,02,4.00
2014,12,03,06,03,4.00
2014,12,03,06,04,4.00
2014,12,03,06,05,4.10
2014,12,03,06,06,4.00
2014,12,03,06,07,4.00
2014,12,03,06,08,4.00
2014,12,03,06,09,4.00
2014,12,03,06,10,4.00
2014,12,03,06,11,4.00
2014,12,03,06,12,4.00
2014,12,03,06,13,4.00
2014,12,03,06,14,4.00
2014,12,03,06,15,4.00
2014,12,03,06,16,4.00
2014,12,03,06,17,4.00
2014,12,03,06,18,3.90
2014,12,03,06,19,3.90
2014,12,03,06,20,3.90
2014,12,03,06,21,3.90
2014,12,03,06,22,3.90
2014,12,03,06,23,3.90
2014,12,03,06,24,3.80
2014,12,03,06,25,3.80
2014,12,03,06,26,3.80
2014,12,03,06,27,3.70
2014,12,03,06,28,3.70
2014,12,03,06,29,3.70
2014,12,03,06,30,3.70
2014,12,03,06,31,3.60
2014,12,03,06,32,3.60
2014,12,03,06,33,3.50
2014,12,03,06,34,3.50
2014,12,03,06,35,3.40
2014,12,03,06,36,3.40
2014,12,03,06,37,3.30
2014,12,03,06,38,3.30
2014,12,03,06,39,3.30
2014,12,03,06,40,3.30
2014,12,03,06,41,3.20
2014,12,03,06,42,3.20
2014,12,03,06,43,3.20
2014,12,03,06,44,3.10
2014,12,03,06,45,3.10
2014,12,03,06,46,3.10
2014,12,03,06,47,3.00
2014,12,03,06,48,3.00
2014,12,03,06,49,2.90
2014,12,03,06,50,2.90
2014,12,03,06,51,2.90
2014,12,03,06,52,2.90
2014,12,03,06,53,2.90
2014,12,03,06,54,2.90
2014,12,03,06,55,2.90
2014,12,03,06,56,2.80
2014,12,03,06,57,2.80
2014,12,03,06,58,2.80
2014,12,03,06,59,2.80
2014,12,03,07,00,2.80
2014,12,03,07,01,2.80
2014,12,03,07,02,2.80
2014,12,03,07,03,2.70
2014,12,03,07,04,2.70
2014,12,03,07,05,2.70
2014,12,03,07,06,2.70
2014,12,03,07,07,2.70
2014,12,03,07,08,2.60
2014,12,03,07,09,2.60
2014,12,03,07,10,2.60
2014,12,03,07,11,2.60
2014,12,03,07,12,2.60
2014,12,03,07,13,2.60
2014,12,03,07,14,2.50
2014,12,03,07,15,2.50
2014,12,03,07,16,2.50
2014,12,03,07,17,2.50
2014,12,03,07,18,2.40
2014,12,03,07,19,2.40
2014,12,03,07,20,2.40
2014,12,03,07,21,2.40
2014,12,03,07,22,2.40
2014,12,03,07,23,2.30
2014,12,03,07,24,2.30
2014,12,03,07,25,2.30
2014,12,03,07,26,2.30
2014,12,03,07,27,2.30
2014,12,03,07,28,2.30
2014,12,03,07,29,2.30
2014,12,03,07,30,2.30
2014,12,03,07,31,2.30
2014,12,03,07,32,2.30
2014,12,03,07,33,2.30
2014,12,03,07,34,2.30
2014,12,03,07,35,2.30
2014,12,03,07,36,2.30
2014,12,03,07,37,2.30
2014,12,03,07,38,2.30
2014,12,03,07,39,2.30
2014,12,03,07,40,2.30
2014,12,03,07,41,2.30
2014,12,03,07,42,2.30
2014,12,03,07,43,2.20
2014,12,03,07,44,2.20
2014,12,03,07,45,2.20
2014,12,03,07,46,2.20
2014,12,03,07,47,2.20
2014,12,03,07,48,2.20
2014,12,03,07,49,2.20
2014,12,03,07,50,2.20
2014,12,03,07,51,2.20
2014,12,03,07,52,2.20
2014,12,03,07,53,2.20
2014,12,03,07,54,2.20
2014,12,03,07,55,2.20
2014,12,03,07,56,2.20
2014,12,03,07,57,2.20
2014,12,03,07,58,2.20
2014,12,03,07,59,2.20
2014,12,03,08,00,2.20
2014,12,03,08,01,2.20
2014,12,03,08,02,2.20
2014,12,03,08,03,2.20
2014,12,03,08,04,2.20
2014,12,03,08,05,2.20
2014,12,03,08,06,2.20
2014,12,03,08,07,2.20
2014,12,03,08,08,2.20
2014,12,03,08,09,2.20
2014,12,03,08,10,2.20
2014,12,03,08,11,2.20
2014,12,03,08,12,2.30
2014,12,03,08,13,2.30
2014,12,03,08,14,2.30
2014,12,03,08,15,2.30
2014,12,03,08,16,2.30
2014,12,03,08,17,2.30
2014,12,03,08,18,2.30
2014,12,03,08,19,2.30
2014,12,03,08,20,2.40
2014,12,03,08,21,2.40
2014,12,03,08,22,2.40
2014,12,03,08,23,2.40
2014,12,03,08,24,2.40
2014,12,03,08,25,2.40
2014,12,03,08,26,2.50
2014,12,03,08,27,2.50
2014,12,03,08,28,2.50
2014,12,03,08,29,2.50
2014,12,03,08,30,2.60
2014,12,03,08,31,2.60
2014,12,03,08,32,2.60
2014,12,03,08,33,2.60
2014,12,03,08,34,2.60
2014,12,03,08,35,2.60
2014,12,03,08,36,2.60
2014,12,03,08,37,2.60
2014,12,03,08,38,2.70
2014,12,03,08,39,2.70
2014,12,03,08,40,2.70
2014,12,03,08,41,2.70
2014,12,03,08,42,2.80
2014,12,03,08,43,2.80
2014,12,03,08,44,2.80
2014,12,03,08,45,2.80
2014,12,03,08,46,2.80
2014,12,03,08,47,2.90
2014,12,03,08,48,2.90
2014,12,03,08,49,2.90
2014,12,03,08,50,3.00
2014,12,03,08,51,3.00
2014,12,03,08,52,3.00
2014,12,03,08,53,3.10
2014,12,03,08,54,3.10
2014,12,03,08,55,3.10
2014,12,03,08,56,3.10
2014,12,03,08,57,3.20
2014,12,03,08,58,3.20
2014,12,03,08,59,3.20
2014,12,03,09,00,3.20
2014,12,03,09,01,3.30
2014,12,03,09,02,3.30
2014,12,03,09,03,3.30
2014,12,03,09,04,3.30
2014,12,03,09,05,3.30
2014,12,03,09,06,3.40
2014,12,03,09,07,3.40
2014,12,03,09,08,3.40
2014,12,03,09,09,3.40
2014,12,03,09,10,3.40
2014,12,03,09,11,3.50
2014,12,03,09,12,3.50
2014,12,03,09,13,3.60
2014,12,03,09,14,3.60
2014,12,03,09,15,3.60
2014,12,03,09,16,3.60
2014,12,03,09,17,3.70
2014,12,03,09,18,3.70
2014,12,03,09,19,3.70
2014,12,03,09,20,3.70
2014,12,03,09,21,3.80
2014,12,03,09,22,3.80
2014,12,03,09,23,3.80
2014,12,03,09,24,3.80
2014,12,03,09,25,3.90
2014,12,03,09,26,3.90
2014,12,03,09,27,3.90
2014,12,03,09,28,3.90
2014,12,03,09,29,4.00
2014,12,03,09,30,4.00
2014,12,03,09,31,4.10
2014,12,03,09,32,4.10
2014,12,03,09,33,4.10
2014,12,03,09,34,4.20
2014,12,03,09,35,4.20
2014,12,03,09,36,4.20
2014,12,03,09,37,4.30
2014,12,03,09,38,4.30
2014,12,03,09,39,4.30
2014,12,03,09,40,4.30
2014,12,03,09,41,4.40
2014,12,03,09,42,4.40
2014,12,03,09,43,4.40
2014,12,03,09,44,4.40
2014,12,03,09,45,4.50
2014,12,03,09,46,4.50
2014,12,03,09,47,4.60
2014,12,03,09,48,4.60
2014,12,03,09,49,4.60
2014,12,03,09,50,4.70
2014,12,03,09,51,4.70
2014,12,03,09,52,4.80
2014,12,03,09,53,4.80
2014,12,03,09,54,4.80
2014,12,03,09,55,4.80
2014,12,03,09,56,4.90
2014,12,03,09,57,4.90
2014,12,03,09,58,4.90
2014,12,03,09,59,4.90
2014,12,03,10,00,4.90
2014,12,03,10,01,5.00
2014,12,03,10,02,5.00
2014,12,03,10,03,5.00
2014,12,03,10,04,5.00
2014,12,03,10,05,5.10
2014,12,03,10,06,5.10
2014,12,03,10,07,5.10
2014,12,03,10,08,5.10
2014,12,03,10,09,5.10
2014,12,03,10,10,5.20
2014,12,03,10,11,5.20
2014,12,03,10,12,5.20
2014,12,03,10,13,5.20
2014,12,03,10,14,5.20
2014,12,03,10,15,5.30
2014,12,03,10,16,5.30
2014,12,03,10,17,5.30
2014,12,03,10,18,5.30
2014,12,03,10,19,5.40
2014,12,03,10,20,5.40
2014,12,03,10,21,5.40
2014,12,03,10,22,5.50
2014,12,03,10,23,5.50
2014,12,03,10,24,5.50
2014,12,03,10,25,5.60
2014,12,03,10,26,5.60
2014,12,03,10,27,5.60
2014,12,03,10,28,5.60
2014,12,03,10,29,5.60
2014,12,03,10,30,5.60
2014,12,03,10,31,5.60
2014,12,03,10,32,5.60
2014,12,03,10,33,5.60
2014,12,03,10,34,5.70
2014,12,03,10,35,5.70
2014,12,03,10,36,5.70
2014,12,03,10,37,5.70
2014,12,03,10,38,5.70
2014,12,03,10,39,5.70
2014,12,03,10,40,5.80
2014,12,03,10,41,5.80
2014,12,03,10,42,5.80
2014,12,03,10,43,5.80
2014,12,03,10,44,5.80
2014,12,03,10,45,5.80
2014,12,03,10,46,5.90
2014,12,03,10,47,5.90
2014,12,03,10,48,5.90
2014,12,03,10,49,6.00
2014,12,03,10,50,6.00
2014,12,03,10,51,6.00
2014,12,03,10,52,6.10
2014,12,03,10,53,6.10
2014,12,03,10,54,6.10
2014,12,03,10,55,6.10
2014,12,03,10,56,6.10
2014,12,03,10,57,6.10
2014,12,03,10,58,6.20
2014,12,03,10,59,6.20
2014,12,03,11,00,6.20
2014,12,03,11,01,6.20
2014,12,03,11,02,6.20
2014,12,03,11,03,6.20
2014,12,03,11,04,6.20
2014,12,03,11,05,6.20
2014,12,03,11,06,6.20
2014,12,03,11,07,6.30
2014,12,03,11,08,6.30
2014,12,03,11,09,6.30
2014,12,03,11,10,6.30
2014,12,03,11,11,6.30
2014,12,03,11,12,6.30
2014,12,03,11,13,6.40
2014,12,03,11,14,6.40
2014,12,03,11,15,6.40
2014,12,03,11,16,6.40
2014,12,03,11,17,6.40
2014,12,03,11,18,6.40
2014,12,03,11,19,6.40
2014,12,03,11,20,6.40
2014,12,03,11,21,6.50
2014,12,03,11,22,6.40
2014,12,03,11,23,6.50
2014,12,03,11,24,6.50
2014,12,03,11,25,6.50
2014,12,03,11,26,6.50
2014,12,03,11,27,6.60
2014,12,03,11,28,6.60
2014,12,03,11,29,6.50
2014,12,03,11,30,6.50
2014,12,03,11,31,6.50
2014,12,03,11,32,6.50
2014,12,03,11,33,6.50
2014,12,03,11,34,6.40
2014,12,03,11,35,6.40
2014,12,03,11,36,6.40
2014,12,03,11,37,6.40
2014,12,03,11,38,6.40
2014,12,03,11,39,6.30
2014,12,03,11,40,6.30
2014,12,03,11,41,6.30
2014,12,03,11,42,6.30
2014,12,03,11,43,6.30
2014,12,03,11,44,6.30
2014,12,03,11,45,6.30
2014,12,03,11,46,6.30
2014,12,03,11,47,6.30
2014,12,03,11,48,6.30
2014,12,03,11,49,6.30
2014,12,03,11,50,6.30
2014,12,03,11,51,6.40
2014,12,03,11,52,6.40
2014,12,03,11,53,6.40
2014,12,03,11,54,6.40
2014,12,03,11,55,6.40
2014,12,03,11,56,6.40
2014,12,03,11,57,6.50
2014,12,03,11,58,6.50
2014,12,03,11,59,6.50
2014,12,03,12,00,6.60
2014,12,03,12,01,6.60
2014,12,03,12,02,6.60
2014,12,03,12,03,6.60
2014,12,03,12,04,6.60
2014,12,03,12,05,6.60
2014,12,03,12,06,6.60
2014,12,03,12,07,6.70
2014,12,03,12,08,6.70
2014,12,03,12,09,6.70
2014,12,03,12,10,6.70
2014,12,03,12,11,6.70
2014,12,03,12,12,6.70
2014,12,03,12,13,6.70
2014,12,03,12,14,6.70
2014,12,03,12,15,6.70
2014,12,03,12,16,6.70
2014,12,03,12,17,6.70
2014,12,03,12,18,6.70
2014,12,03,12,19,6.70
2014,12,03,12,20,6.70
2014,12,03,12,21,6.70
2014,12,03,12,22,6.70
2014,12,03,12,23,6.70
2014,12,03,12,24,6.70
2014,12,03,12,25,6.70
2014,12,03,12,26,6.70
2014,12,03,12,27,6.70
2014,12,03,12,28,6.70
2014,12,03,12,29,6.70
2014,12,03,12,30,6.70
2014,12,03,12,31,6.70
2014,12,03,12,32,6.70
2014,12,03,12,33,6.80
2014,12,03,12,34,6.80
2014,12,03,12,35,6.80
2014,12,03,12,36,6.80
2014,12,03,12,37,6.80
2014,12,03,12,38,6.80
2014,12,03,12,39,6.80
2014,12,03,12,40,6.80
2014,12,03,12,41,6.80
2014,12,03,12,42,6.80
2014,12,03,12,43,6.80
2014,12,03,12,44,6.90
2014,12,03,12,45,6.80
2014,12,03,12,46,6.80
2014,12,03,12,47,6.80
2014,12,03,12,48,6.80
2014,12,03,12,49,6.80
2014,12,03,12,50,6.90
2014,12,03,12,51,6.90
2014,12,03,12,52,6.90
2014,12,03,12,53,6.90
2014,12,03,12,54,6.90
2014,12,03,12,55,6.80
2014,12,03,12,56,6.80
2014,12,03,12,57,6.80
2014,12,03,12,58,6.80
2014,12,03,12,59,6.80
2014,12,03,13,00,6.80
2014,12,03,13,01,6.80
2014,12,03,13,02,6.80
2014,12,03,13,03,6.80
2014,12,03,13,04,6.80
2014,12,03,13,05,6.80
2014,12,03,13,06,6.80
2014,12,03,13,07,6.80
2014,12,03,13,08,6.80
2014,12,03,13,09,6.80
2014,12,03,13,10,6.80
2014,12,03,13,11,6.90
2014,12,03,13,12,6.90
2014,12,03,13,13,6.90
2014,12,03,13,14,6.90
2014,12,03,13,15,7.00
2014,12,03,13,16,7.00
2014,12,03,13,17,7.00
2014,12,03,13,18,7.00
2014,12,03,13,19,7.10
2014,12,03,13,20,7.10
2014,12,03,13,21,7.10
2014,12,03,13,22,7.10
2014,12,03,13,23,7.10
2014,12,03,13,24,7.10
2014,12,03,13,25,7.10
2014,12,03,13,26,7.20
2014,12,03,13,27,7.20
2014,12,03,13,28,7.20
2014,12,03,13,29,7.20
2014,12,03,13,30,7.20
2014,12,03,13,31,7.30
2014,12,03,13,32,7.30
2014,12,03,13,33,7.30
2014,12,03,13,34,7.30
2014,12,03,13,35,7.30
2014,12,03,13,36,7.30
2014,12,03,13,37,7.30
2014,12,03,13,38,7.30
2014,12,03,13,39,7.30
2014,12,03,13,40,7.40
2014,12,03,13,41,7.40
2014,12,03,13,42,7.40
2014,12,03,13,43,7.50
2014,12,03,13,44,7.50
2014,12,03,13,45,7.50
2014,12,03,13,46,7.50
2014,12,03,13,47,7.50
2014,12,03,13,48,7.40
2014,12,03,13,49,7.40
2014,12,03,13,50,7.40
2014,12,03,13,51,7.40
2014,12,03,13,52,7.30
2014,12,03,13,53,7.30
2014,12,03,13,54,7.30
2014,12,03,13,55,7.30
2014,12,03,13,56,7.30
2014,12,03,13,57,7.30
2014,12,03,13,58,7.40
2014,12,03,13,59,7.40
2014,12,03,14,00,7.40
2014,12,03,14,01,7.40
2014,12,03,14,02,7.40
2014,12,03,14,03,7.40
2014,12,03,14,04,7.40
2014,12,03,14,05,7.40
2014,12,03,14,06,7.40
2014,12,03,14,07,7.40
2014,12,03,14,08,7.50
2014,12,03,14,09,7.50
2014,12,03,14,10,7.50
2014,12,03,14,11,7.50
2014,12,03,14,12,7.60
2014,12,03,14,13,7.60
2014,12,03,14,14,7.60
2014,12,03,14,15,7.60
2014,12,03,14,16,7.60
2014,12,03,14,17,7.60
2014,12,03,14,18,7.60
2014,12,03,14,19,7.60
2014,12,03,14,20,7.50
2014,12,03,14,21,7.50
2014,12,03,14,22,7.50
2014,12,03,14,23,7.50
2014,12,03,14,24,7.50
2014,12,03,14,25,7.50
2014,12,03,14,26,7.50
2014,12,03,14,27,7.50
2014,12,03,14,28,7.60
2014,12,03,14,29,7.60
2014,12,03,14,30,7.60
2014,12,03,14,31,7.60
2014,12,03,14,32,7.60
2014,12,03,14,33,7.60
2014,12,03,14,34,7.60
2014,12,03,14,35,7.60
2014,12,03,14,36,7.60
2014,12,03,14,37,7.60
2014,12,03,14,38,7.60
2014,12,03,14,39,7.60
2014,12,03,14,40,7.60
2014,12,03,14,41,7.60
2014,12,03,14,42,7.60
2014,12,03,14,43,7.60
2014,12,03,14,44,7.60
2014,12,03,14,45,7.60
2014,12,03,14,46,7.60
2014,12,03,14,47,7.60
2014,12,03,14,48,7.60
2014,12,03,14,49,7.60
2014,12,03,14,50,7.60
2014,12,03,14,51,7.60
2014,12,03,14,52,7.60
2014,12,03,14,53,7.60
2014,12,03,14,54,7.60
2014,12,03,14,55,7.60
2014,12,03,14,56,7.60
2014,12,03,14,57,7.60
2014,12,03,14,58,7.60
2014,12,03,14,59,7.60
2014,12,03,15,00,7.50
2014,12,03,15,01,7.50
2014,12,03,15,02,7.50
2014,12,03,15,03,7.50
2014,12,03,15,04,7.40
2014,12,03,15,05,7.40
2014,12,03,15,06,7.40
2014,12,03,15,07,7.40
2014,12,03,15,08,7.40
2014,12,03,15,09,7.40
2014,12,03,15,10,7.40
2014,12,03,15,11,7.30
2014,12,03,15,12,7.30
2014,12,03,15,13,7.30
2014,12,03,15,14,7.30
2014,12,03,15,15,7.30
2014,12,03,15,16,7.30
2014,12,03,15,17,7.30
2014,12,03,15,18,7.30
2014,12,03,15,19,7.30
2014,12,03,15,20,7.30
2014,12,03,15,21,7.30
2014,12,03,15,22,7.30
2014,12,03,15,23,7.30
2014,12,03,15,24,7.30
2014,12,03,15,25,7.30
2014,12,03,15,26,7.30
2014,12,03,15,27,7.30
2014,12,03,15,28,7.30
2014,12,03,15,29,7.30
2014,12,03,15,30,7.40
2014,12,03,15,31,7.40
2014,12,03,15,32,7.40
2014,12,03,15,33,7.40
2014,12,03,15,34,7.40
2014,12,03,15,35,7.40
2014,12,03,15,36,7.40
2014,12,03,15,37,7.40
2014,12,03,15,38,7.40
2014,12,03,15,39,7.50
2014,12,03,15,40,7.50
2014,12,03,15,41,7.50
2014,12,03,15,42,7.50
2014,12,03,15,43,7.40
2014,12,03,15,44,7.40
2014,12,03,15,45,7.40
2014,12,03,15,46,7.40
2014,12,03,15,47,7.40
2014,12,03,15,48,7.40
2014,12,03,15,49,7.40
2014,12,03,15,50,7.40
2014,12,03,15,51,7.40
2014,12,03,15,52,7.30
2014,12,03,15,53,7.30
2014,12,03,15,54,7.30
2014,12,03,15,55,7.30
2014,12,03,15,56,7.20
2014,12,03,15,57,7.20
2014,12,03,15,58,7.20
2014,12,03,15,59,7.10
2014,12,03,16,00,7.10
2014,12,03,16,01,7.10
2014,12,03,16,02,7.00
2014,12,03,16,03,7.00
2014,12,03,16,04,6.90
2014,12,03,16,05,6.90
2014,12,03,16,06,6.90
2014,12,03,16,07,6.80
2014,12,03,16,08,6.80
2014,12,03,16,09,6.80
2014,12,03,16,10,6.70
2014,12,03,16,11,6.70
2014,12,03,16,12,6.70
2014,12,03,16,13,6.60
2014,12,03,16,14,6.60
2014,12,03,16,15,6.60
2014,12,03,16,16,6.50
2014,12,03,16,17,6.50
2014,12,03,16,18,6.40
2014,12,03,16,19,6.40
2014,12,03,16,20,6.40
2014,12,03,16,21,6.30
2014,12,03,16,22,6.30
2014,12,03,16,23,6.30
2014,12,03,16,24,6.30
2014,12,03,16,25,6.20
2014,12,03,16,26,6.20
2014,12,03,16,27,6.20
2014,12,03,16,28,6.20
2014,12,03,16,29,6.10
2014,12,03,16,30,6.10
2014,12,03,16,31,6.10
2014,12,03,16,32,6.00
2014,12,03,16,33,6.00
2014,12,03,16,34,6.00
2014,12,03,16,35,5.90
2014,12,03,16,36,5.90
2014,12,03,16,37,5.90
2014,12,03,16,38,5.90
2014,12,03,16,39,5.80
2014,12,03,16,40,5.80
2014,12,03,16,41,5.80
2014,12,03,16,42,5.80
2014,12,03,16,43,5.80
2014,12,03,16,44,5.70
2014,12,03,16,45,5.70
2014,12,03,16,46,5.70
2014,12,03,16,47,5.70
2014,12,03,16,48,5.70
2014,12,03,16,49,5.70
2014,12,03,16,50,5.70
2014,12,03,16,51,5.70
2014,12,03,16,52,5.60
2014,12,03,16,53,5.60
2014,12,03,16,54,5.60
2014,12,03,16,55,5.60
2014,12,03,16,56,5.50
2014,12,03,16,57,5.50
2014,12,03,16,58,5.50
2014,12,03,16,59,5.50
2014,12,03,17,00,5.50
2014,12,03,17,01,5.40
2014,12,03,17,02,5.40
2014,12,03,17,03,5.40
2014,12,03,17,04,5.40
2014,12,03,17,05,5.40
2014,12,03,17,06,5.40
2014,12,03,17,07,5.40
2014,12,03,17,08,5.40
2014,12,03,17,09,5.30
2014,12,03,17,10,5.30
2014,12,03,17,11,5.30
2014,12,03,17,12,5.30
2014,12,03,17,13,5.30
2014,12,03,17,14,5.30
2014,12,03,17,15,5.30
2014,12,03,17,16,5.30
2014,12,03,17,17,5.20
2014,12,03,17,18,5.20
2014,12,03,17,19,5.20
2014,12,03,17,20,5.20
2014,12,03,17,21,5.20
2014,12,03,17,22,5.20
2014,12,03,17,23,5.20
2014,12,03,17,24,5.10
2014,12,03,17,25,5.10
2014,12,03,17,26,5.10
2014,12,03,17,27,5.00
2014,12,03,17,28,5.00
2014,12,03,17,29,5.00
2014,12,03,17,30,4.90
2014,12,03,17,31,4.90
2014,12,03,17,32,4.90
2014,12,03,17,33,4.90
2014,12,03,17,34,4.80
2014,12,03,17,35,4.80
2014,12,03,17,36,4.80
2014,12,03,17,37,4.80
2014,12,03,17,38,4.70
2014,12,03,17,39,4.70
2014,12,03,17,40,4.70
2014,12,03,17,41,4.70
2014,12,03,17,42,4.60
2014,12,03,17,43,4.60
2014,12,03,17,44,4.50
2014,12,03,17,45,4.50
2014,12,03,17,46,4.50
2014,12,03,17,47,4.40
2014,12,03,17,48,4.40
2014,12,03,17,49,4.30
2014,12,03,17,50,4.30
2014,12,03,17,51,4.30
2014,12,03,17,52,4.30
2014,12,03,17,53,4.20
2014,12,03,17,54,4.20
2014,12,03,17,55,4.20
2014,12,03,17,56,4.10
2014,12,03,17,57,4.10
2014,12,03,17,58,4.10
2014,12,03,17,59,4.00
2014,12,03,18,00,4.00
2014,12,03,18,01,4.00
2014,12,03,18,02,3.90
2014,12,03,18,03,3.90
2014,12,03,18,04,3.90
2014,12,03,18,05,3.80
2014,12,03,18,06,3.80